OpenBCM V1.08-5-g2f4a (Linux)

Packet Radio Mailbox

IZ3LSV

[San Dona' di P. JN]

 Login: GUEST





  
I0OJJ  > KEPS     01.06.25 01:44l 357 Lines 16945 Bytes #21 (0) @ AMSAT
BID : ORB25152.1
Read: GUEST
Subj: 2Line Orbital Elements 25152.AMSAT
Path: IZ3LSV<IK6IHL<IK7NXU<HB9ON<DK0WUE<PD0LPM<PI8ZTM<IR0AAB<I0OJJ<I0OJJ
Sent: 250601/0025z @:I0OJJ.ITA.EU [Rome] obcm1.08-10-g596e

>From i0ojj%i0ojj.ita.eu@i0ojj.ampr.org Sun Jun  1 02:25:07 2025
Received: from i0ojj.ampr.org by i0ojj.ampr.org (JNOS2.0p.8c) with SMTP
	id AA17032725 ; Sun, 01 Jun 2025 02:25:07 +0200
Message-Id: <ORB25152.1@i0ojj.bbs>
>From: i0ojj@i0ojj.ita.eu
X-JNOS-User-Port: Telnet   (i0ojj @ 44.134.109.10)  -> Sending message

From: I0OJJ @ I0OJJ.ITA.EU (Gustavo)
To:   KEPS @ AMSAT
X-Info: This message was generated automatically


QST de W1STR

AMSAT Orbital Elements for Amateur Satellites in TLE Format
>From Orbital Analysis Office
New England Sci-Tech STEM Education Center
Natick, MA June 01, 2025
To all radio amateurs


These element sets describe the orbits of various satellites 
in use by the amateur radio community. For details see:
www.amsat.org/keplerian-elements-formats/

A daily update of element sets is available at:
www.amsat.org/tle/daily-bulletin.txt
or without bulletin text:
www.amsat.org/tle/dailytle.txt


AO-07
1 07530U 74089B   25151.56098698 -.00000043  00000-0  20240-4 0  9998
2 07530 101.9929 155.7292 0012518 138.0330 338.2536 12.53689386312696
UO-11
1 14781U 84021B   25151.46411427  .00001490  00000-0  16270-3 0  9992
2 14781  97.7537 118.0135 0008231  18.1253 342.0257 14.89360219200282
AO-27
1 22825U 93061C   25151.61628641  .00000126  00000-0  65189-4 0  9998
2 22825  98.7370 213.1269 0009268 134.2939 225.9005 14.30796234652437
FO-29
1 24278U 96046B   25151.58447929  .00000027  00000-0  63807-4 0  9997
2 24278  98.5770  46.6591 0350141   6.1055 354.4189 13.53248371421551
NOAA-15
1 25338U 98030A   25151.83635708  .00000224  00000-0  10950-3 0  9991
2 25338  98.5352 177.1781 0010793  31.5869 328.5958 14.26974256407152
GO-32
1 25397U 98043D   25151.55953747  .00000074  00000-0  52226-4 0  9991
2 25397  98.9698 130.4908 0000705 178.1151 182.0030 14.24312737397005
ISS
1 25544U 98067A   25151.88784326  .00010887  00000-0  19918-3 0  9995
2 25544  51.6366  27.8423 0001867 174.0070 186.0942 15.49897373512639
NO-44
1 26931U 01043C   25151.35491268  .00000158  00000-0  90186-4 0  9993
2 26931  67.0488 151.6916 0005999 275.2021  84.8396 14.31729450235785
SO-50
1 27607U 02058C   25151.57552926  .00001024  00000-0  14539-3 0  9994
2 27607  64.5527 228.3291 0055331 336.0923  23.7613 14.81599561207890
CO-55
1 27844U 03031E   25151.47508557  .00000329  00000-0  16235-3 0  9991
2 27844  98.6756 159.8663 0008994 207.2617 152.8091 14.23989051137347
CO-57
1 27848U 03031J   25151.55983606  .00000268  00000-0  13769-3 0  9997
2 27848  98.6785 159.9626 0008591 225.7468 134.3006 14.23324706137087
RS-22
1 27939U 03042A   25151.84860900  .00001239  00000-0  20417-3 0  9990
2 27939  98.3276 321.0899 0012258  43.0164  86.8447 14.72332010159549
NOAA-18
1 28654U 05018A   25151.84531424  .00000214  00000-0  13690-3 0  9993
2 28654  98.8423 231.4197 0014876 150.7281 209.4728 14.13606221 32517
CO-58
1 28895U 05043F   25151.33528992  .00001556  00000-0  26181-3 0  9997
2 28895  98.2488 295.5706 0013920 341.2667  18.8025 14.70982940 45581
CO-65
1 32785U 08021C   25151.82537232  .00003892  00000-0  28351-3 0  9996
2 32785  97.7843 122.9255 0008111 236.1733 123.8721 15.04339308927836
CO-66
1 32791U 08021J   25151.47887720  .00011191  00000-0  54578-3 0  9995
2 32791  97.7278 131.3193 0003708 166.0784 194.0552 15.18484563929118
RS-30
1 32953U 08025A   25151.87123893  .00000029  00000-0  13709-3 0  9996
2 32953  82.5038 232.5919 0020314  67.4813 292.8415 12.43164761772451
NOAA-19
1 33591U 09005A   25151.85035898  .00000196  00000-0  12867-3 0  9998
2 33591  98.9976 216.5058 0014192  32.8854 327.3198 14.13369702840871
SRMSAT
1 37841U 11058D   25151.47016786  .00000395  00000-0  70665-4 0  9996
2 37841  19.9706 209.6787 0011710 325.6305  62.5700 14.11432981703824
ZACUBE-1
1 39417U 13066B   25151.42656501  .00005393  00000-0  46908-3 0  9993
2 39417  97.7798 108.4890 0046326  83.0802 277.5686 14.96549787623546
Delfi-N3xt
1 39428U 13066N   25151.75419648  .00007150  00000-0  72863-3 0  9992
2 39428  97.8351  69.5036 0086144  30.6718 329.9494 14.88234233617943
GOMX-1
1 39430U 13066Q   25151.89530641  .00001712  00000-0  27269-3 0  9995
2 39430  97.6842  11.0929 0131483 219.7748 139.3762 14.67601057614130
LO-74
1 39440U 13066AA  25151.40947159  .00002988  00000-0  30614-3 0  9993
2 39440  97.8495  96.0342 0061113 209.0357 150.7457 14.89871228620070
AO-73
1 39444U 13066AE  25151.82147111  .00007055  00000-0  52899-3 0  9992
2 39444  97.7840 113.7019 0044260  58.3199 302.2330 15.02194992622863
DTUSAT-2
1 40030U 14033W   25151.46722130  .00006908  00000-0  45118-3 0  9992
2 40030  98.0551 122.8468 0010958  90.7775 269.4708 15.08131094595025
EO-80
1 40032U 14033Y   25151.81974217  .00005990  00000-0  39110-3 0  9993
2 40032  98.0428 122.8832 0009690  39.7239 320.4695 15.08215986595570
LILACSAT-2
1 40908U 15049K   25151.76583428  .00010330  00000-0  27197-3 0  9993
2 40908  97.5061 171.9009 0009351 179.9196 180.2053 15.38698126536875
IO-86
1 40931U 15052B   25103.16584653  .00001824  00000-0  15574-3 0  9999
2 40931   5.9984   7.7323 0012484  15.4851 344.5658 14.78734415515920
Horyu-4
1 41340U 16012D   25151.44920706  .00017428  00000-0  47064-3 0  9994
2 41340  30.9948 193.3263 0006238 318.1626  41.8543 15.36479354511380
Lapan A3
1 41603U 16040E   25151.86654601  .00003361  00000-0  11884-3 0  9993
2 41603  97.1369 156.8169 0009343 306.8375  53.2008 15.29797760496457
CAS-2T
1 41847U 16066G   25151.46239015  .00001405  00000-0  20912-3 0  9994
2 41847  98.4203 226.0044 0345758 205.9096 152.4424 14.43445864449702
CAS-4B
1 42759U 17034B   25151.83979285  .00059571  00000-0  65185-3 0  9992
2 42759  43.0080  13.9351 0020929 233.7735 126.1195 15.62176314441233
CAS-4A
1 42761U 17034D   25151.87984786  .00065437  00000-0  68122-3 0  9993
2 42761  43.0121  10.9449 0022356 237.9120 121.9574 15.63371729441262
TechnoSat
1 42829U 17042E   25151.71494655  .00002345  00000-0  18464-3 0  9994
2 42829  97.3920 320.8541 0012811 310.1689  49.8413 15.01666811429392
AO-91
1 43017U 17073E   25151.61515670  .00005874  00000-0  30399-3 0  9999
2 43017  97.5247  22.6168 0172563 196.5829 162.9712 15.04555267407863
S-Net D
1 43186U 18014G   25151.69572202  .00004207  00000-0  25056-3 0  9997
2 43186  97.5629  54.6926 0007367 252.8623 107.1800 15.11734142401039
S-Net B
1 43187U 18014H   25151.70099825  .00003838  00000-0  22899-3 0  9996
2 43187  97.5635  54.6694 0008075 247.2278 112.8099 15.11714723401036
S-Net A
1 43188U 18014J   25151.69613255  .00004155  00000-0  24745-3 0  9999
2 43188  97.5642  54.8133 0007993 248.2792 111.7588 15.11738969401034
S-Net C
1 43189U 18014K   25151.30621367  .00004100  00000-0  24436-3 0  9998
2 43189  97.5660  54.4402 0009515 241.4519 118.5754 15.11708309399529
Ten-Koh
1 43677U 18084G   25151.46025288  .00002247  00000-0  18335-3 0  9995
2 43677  98.0877 323.3548 0005072 300.2068  59.8652 15.00531069358875
PO-101
1 43678U 18084H   25151.84014835  .00003007  00000-0  25801-3 0  9995
2 43678  98.1044 327.6302 0006787 328.3233  31.7579 14.98298623359079
QO-100
1 43700U 18090A   25151.51879711  .00000138  00000-0  00000-0 0  9997
2 43700   0.0188 318.6629 0001738 143.1042   0.0497  1.00269398 23858
MinXSS-2
1 43758U 18099A   25151.73773917  .00014592  00000-0  57852-3 0  9993
2 43758  97.5015 217.7459 0012403 179.5185 180.6067 15.25421567355624
AO-95
1 43770U 18099N   25151.15122368  .00008483  00000-0  43148-3 0  9996
2 43770  97.4914 209.3418 0009371 238.4830 121.5488 15.17051926355124
RANGE-A
1 43773U 18099R   25151.51630363  .00003756  00000-0  24125-3 0  9990
2 43773  97.4482 200.1815 0010334 214.8341 145.2213 15.08999477354853
MOVE-II
1 43780U 18099Y   25151.18666843  .00219487  00000-0  16393-2 0  9990
2 43780  97.4647 226.1166 0006397 190.2363 169.8771 15.72040620356329
SNUSat 2
1 43782U 18099AA  25151.68732964  .00007096  00000-0  38851-3 0  9990
2 43782  97.4595 206.6958 0012329 176.6768 183.4548 15.14470873355151
SnugLite
1 43784U 18099AC  25151.64519770  .00008186  00000-0  41283-3 0  9990
2 43784  97.4408 206.1971 0004057 162.4302 197.7073 15.17387992355289
ITASat 1
1 43786U 18099AE  25151.61674622  .00005751  00000-0  33048-3 0  9992
2 43786  97.4565 206.1630 0013093 232.2741 127.7304 15.12810270355106
EAGLET 1
1 43790U 18099AJ  25151.59855520  .00003461  00000-0  22277-3 0  9990
2 43790  97.4764 206.1317 0011175 212.7973 147.2563 15.08971523354717
ESEO
1 43792U 18099AL  25151.67813493  .00002451  00000-0  18829-3 0  9990
2 43792  97.4485 199.5876 0012730 189.9928 170.1046 15.02579792354488
CSIM
1 43793U 18099AM  25151.16771742  .00189910  00000-0  14776-2 0  9997
2 43793  97.4811 228.3504 0006682 180.6467 179.4788 15.71145698356168
JO-97
1 43803U 18099AX  25151.43830250  .00011129  00000-0  50999-3 0  9993
2 43803  97.4661 210.5976 0008292 165.9959 194.1508 15.20608038355383
Suomi 100
1 43804U 18099AY  25151.43810660  .00009692  00000-0  47608-3 0  9992
2 43804  97.4723 209.9196 0012974 172.5927 187.5501 15.18195024355315
ISAT
1 43879U 18111D   25151.66414604  .00016427  00000-0  57524-3 0  9994
2 43879  97.5961  65.8620 0007218 217.3728 142.7011 15.29549716350312
UWE-4
1 43880U 18111E   25151.48998930  .00013183  00000-0  52028-3 0  9995
2 43880  97.5906  64.2258 0010137 237.1068 122.9195 15.25627734352244
Sparrow
1 43881U 18111F   25151.58788528  .00018374  00000-0  61984-3 0  9995
2 43881  97.6105  68.6271 0004550 269.1216  90.9503 15.30754954352419
Prox-1
1 44339U 19036A   25151.58238556  .00009335  00000-0  11788-2 0  9995
2 44339  23.9964 120.8892 0006802 331.0656  28.9463 14.79767353316686
SONATE
1 44400U 19038Q   25151.59103200  .00226721  20853-4  77794-3 0  9996
2 44400  97.6874 177.4091 0004854 215.0484 145.0469 15.89642491328145
